TimeEDT,TemperatureF,Dew PointF,Humidity,Sea Level PressureIn,VisibilityMPH,Wind Direction,Wind SpeedMPH,Gust SpeedMPH,PrecipitationIn,Events,Conditions,WindDirDegrees,DateUTC
12:56 AM,48.9,46.9,93,30.14,7.0,South,4.6,-,N/A,,Overcast,170,2013-04-19 04:56:00
1:14 AM,50.0,48.2,94,30.13,1.8,Variable,4.6,-,N/A,,Overcast,0,2013-04-19 05:14:00
1:21 AM,48.2,48.2,100,30.12,3.0,Calm,Calm,-,N/A,,Overcast,0,2013-04-19 05:21:00
1:34 AM,48.2,46.4,93,30.12,1.5,SSE,4.6,-,N/A,,Overcast,160,2013-04-19 05:34:00
1:44 AM,48.2,48.2,100,30.11,0.5,SSW,4.6,-,N/A,Fog,Fog,210,2013-04-19 05:44:00
1:56 AM,50.0,48.9,96,30.11,0.5,Variable,4.6,-,N/A,Fog,Fog,0,2013-04-19 05:56:00
2:31 AM,48.2,48.2,100,30.08,0.2,SSE,8.1,-,N/A,Fog,Fog,160,2013-04-19 06:31:00
2:42 AM,48.2,48.2,100,30.08,0.2,South,3.5,-,N/A,Fog,Fog,170,2013-04-19 06:42:00
2:56 AM,48.9,48.0,97,30.07,0.2,South,6.9,-,N/A,Fog,Fog,180,2013-04-19 06:56:00
3:24 AM,50.0,48.2,94,30.06,0.2,South,11.5,-,N/A,Fog,Fog,170,2013-04-19 07:24:00
3:56 AM,50.0,48.9,96,30.05,0.2,SSE,11.5,-,N/A,Fog,Fog,160,2013-04-19 07:56:00
4:31 AM,50.0,48.2,94,30.05,0.2,South,4.6,-,N/A,Fog,Fog,170,2013-04-19 08:31:00
4:53 AM,50.0,48.2,94,30.05,0.2,South,4.6,-,N/A,Fog,Fog,190,2013-04-19 08:53:00
4:56 AM,50.0,48.9,96,30.04,0.2,South,5.8,-,N/A,Fog,Fog,180,2013-04-19 08:56:00
5:48 AM,48.2,48.2,100,30.03,0.2,SSE,6.9,-,N/A,Fog,Fog,160,2013-04-19 09:48:00
5:56 AM,48.9,48.9,100,30.04,0.2,South,5.8,-,N/A,Fog,Fog,170,2013-04-19 09:56:00
6:06 AM,48.2,48.2,100,30.04,0.2,South,9.2,-,N/A,Fog,Fog,170,2013-04-19 10:06:00
6:56 AM,50.0,48.9,96,30.04,0.2,South,6.9,-,N/A,Fog,Fog,170,2013-04-19 10:56:00
7:06 AM,50.0,48.2,94,30.03,0.2,South,4.6,-,N/A,Fog,Fog,190,2013-04-19 11:06:00
7:36 AM,50.0,50.0,100,30.03,0.2,South,5.8,-,N/A,Fog,Fog,180,2013-04-19 11:36:00
7:56 AM,51.1,50.0,96,30.03,0.2,South,9.2,-,N/A,Fog,Fog,190,2013-04-19 11:56:00
8:56 AM,51.1,50.0,96,30.02,0.2,SE,4.6,-,N/A,Fog,Fog,130,2013-04-19 12:56:00
9:07 AM,51.8,50.0,94,30.01,0.5,SE,4.6,-,N/A,Fog,Fog,140,2013-04-19 13:07:00
9:38 AM,51.8,50.0,94,30.00,2.0,SSW,4.6,-,N/A,,Overcast,200,2013-04-19 13:38:00
9:47 AM,51.8,50.0,94,30.00,5.0,South,8.1,-,N/A,,Overcast,180,2013-04-19 13:47:00
9:56 AM,51.1,50.0,96,30.00,4.0,South,9.2,-,N/A,,Overcast,190,2013-04-19 13:56:00
10:13 AM,51.8,50.0,94,30.00,1.8,SSW,8.1,-,N/A,,Overcast,200,2013-04-19 14:13:00
10:30 AM,55.4,51.8,88,29.99,2.0,South,9.2,-,N/A,,Overcast,190,2013-04-19 14:30:00
10:49 AM,55.4,51.8,88,29.99,5.0,South,8.1,-,N/A,,Overcast,190,2013-04-19 14:49:00
10:56 AM,57.2,51.8,82,29.98,7.0,South,8.1,-,N/A,,Mostly Cloudy,180,2013-04-19 14:56:00
11:56 AM,55.0,51.1,86,29.96,9.0,South,10.4,-,N/A,,Overcast,170,2013-04-19 15:56:00
12:03 PM,55.4,51.8,88,29.95,10.0,South,9.2,-,N/A,,Mostly Cloudy,180,2013-04-19 16:03:00
12:11 PM,55.4,51.8,88,29.95,10.0,South,11.5,-,N/A,,Scattered Clouds,180,2013-04-19 16:11:00
12:54 PM,57.2,51.8,82,29.93,6.0,South,11.5,-,N/A,,Haze,180,2013-04-19 16:54:00
12:56 PM,57.0,52.0,83,29.93,7.0,South,12.7,-,N/A,,Overcast,180,2013-04-19 16:56:00
1:56 PM,55.9,52.0,87,29.91,8.0,South,11.5,-,N/A,,Overcast,190,2013-04-19 17:56:00
2:34 PM,53.6,53.6,100,29.90,5.0,South,13.8,-,0.00,Rain,Light Rain,180,2013-04-19 18:34:00
2:53 PM,53.6,53.6,100,29.88,2.0,SSE,9.2,-,0.00,Rain,Light Rain,160,2013-04-19 18:53:00
2:56 PM,54.0,53.1,97,29.88,2.0,South,8.1,-,0.00,Rain,Light Rain,170,2013-04-19 18:56:00
2:59 PM,55.4,53.6,94,29.88,3.0,South,9.2,-,0.00,Rain,Light Rain,170,2013-04-19 18:59:00
3:04 PM,55.4,53.6,94,29.88,3.0,South,11.5,-,0.00,,Overcast,180,2013-04-19 19:04:00
3:08 PM,53.6,53.6,100,29.88,2.0,South,8.1,-,0.00,,Overcast,170,2013-04-19 19:08:00
3:22 PM,53.6,51.8,94,29.87,0.5,South,5.8,-,0.00,Fog-Rain,Light Rain,180,2013-04-19 19:22:00
3:56 PM,55.0,54.0,96,29.84,1.0,South,11.5,-,0.00,Rain,Light Rain,170,2013-04-19 19:56:00
4:10 PM,53.6,53.6,100,29.84,0.8,South,9.2,-,0.00,,Overcast,170,2013-04-19 20:10:00
4:36 PM,53.6,51.8,94,29.82,0.5,South,15.0,-,0.00,Fog,Fog,170,2013-04-19 20:36:00
4:56 PM,53.1,52.0,96,29.81,0.2,South,11.5,-,0.00,Fog-Rain,Light Rain,180,2013-04-19 20:56:00
5:26 PM,53.6,51.8,94,29.81,0.5,South,10.4,-,0.00,Fog,Fog,180,2013-04-19 21:26:00
5:41 PM,53.6,51.8,94,29.80,0.2,South,10.4,-,0.00,Fog,Fog,180,2013-04-19 21:41:00
5:56 PM,53.1,52.0,96,29.80,0.2,South,5.8,-,0.00,Fog,Fog,190,2013-04-19 21:56:00
6:29 PM,55.4,53.6,94,29.79,1.2,SSW,8.1,-,N/A,,Overcast,200,2013-04-19 22:29:00
6:37 PM,53.6,53.6,100,29.79,0.8,SSW,9.2,-,N/A,,Overcast,210,2013-04-19 22:37:00
6:56 PM,55.0,54.0,96,29.78,0.2,SSW,13.8,20.7,N/A,Fog,Fog,200,2013-04-19 22:56:00
7:15 PM,55.4,55.4,100,29.78,0.5,South,11.5,21.9,N/A,Fog,Fog,190,2013-04-19 23:15:00
7:24 PM,55.4,55.4,100,29.78,0.2,SSW,10.4,-,N/A,Fog,Fog,200,2013-04-19 23:24:00
7:35 PM,55.4,53.6,94,29.79,0.5,SSW,12.7,-,N/A,Fog,Fog,200,2013-04-19 23:35:00
7:51 PM,55.4,55.4,100,29.78,0.2,SSW,12.7,20.7,N/A,Fog,Fog,210,2013-04-19 23:51:00
7:56 PM,55.0,54.0,96,29.78,0.2,SSW,10.4,20.7,N/A,Fog,Fog,210,2013-04-19 23:56:00
8:16 PM,55.4,55.4,100,29.78,0.5,SSW,11.5,-,N/A,Fog,Fog,210,2013-04-20 00:16:00
8:56 PM,57.0,55.9,96,29.76,0.5,SSW,19.6,-,N/A,Fog,Fog,200,2013-04-20 00:56:00
9:44 PM,55.4,55.4,100,29.75,0.2,SSW,19.6,27.6,N/A,Fog,Fog,200,2013-04-20 01:44:00
9:46 PM,55.4,55.4,100,29.75,0.5,SSW,19.6,27.6,N/A,Fog,Fog,200,2013-04-20 01:46:00
9:56 PM,57.0,55.0,93,29.74,0.5,South,19.6,26.5,N/A,Fog,Fog,190,2013-04-20 01:56:00
10:56 PM,57.0,-9999,N/A,29.72,0.5,SSW,24.2,31.1,N/A,Fog,Fog,200,2013-04-20 02:56:00
11:23 PM,57.2,-9999,N/A,29.71,1.5,SSW,27.6,35.7,N/A,,Overcast,200,2013-04-20 03:23:00
11:41 PM,57.2,-9999,N/A,29.70,2.5,SSW,26.5,35.7,0.01,Rain,Light Rain,200,2013-04-20 03:41:00
11:56 PM,57.9,-9999,N/A,29.70,3.0,SSW,29.9,41.4,0.02,Rain,Light Rain,200,2013-04-20 03:56:00